Middletown, OH

3:26 AM EST on November 21, 2019 (GMT -0500)
Hook Field Municipal

Weather History for KMWO - October, 2019

Change the Weather History Date:

Monday, October 21, 2019

  Actual Average (WUND) Record (WUND)
Temperature  
Mean Temperature 61 °F -  
Max Temperature 73 °F - - (-1)
Min Temperature 49 °F - - (-1)
Degree Days  
Heating Degree Days 4    
Growing Degree Days 11 (Base 50)    
Moisture  
Dew Point 56 °F    
Average Humidity 88    
Maximum Humidity 100    
Minimum Humidity 59    
Precipitation  
Precipitation 0.00 in - - ()
Sea Level Pressure  
Sea Level Pressure 29.83 in    
Wind  
Wind Speed 5 mph ()    
Max Wind Speed 22 mph    
Max Gust Speed 30 mph    
Visibility 8.1 miles    
Events Rain    
Averages and records for this station are not official NWS values.
T = Trace of Precipitation, MM = Missing Value Source: Averaged Metar Reports

Daily Weather History Graph

Daily Weather History Graph

Search for Another Location

Airport or City:

Astronomy

Oct. 21, 2019 Rise Set
Actual Time 7:53 AM EDT 6:50 PM EDT
Civil Twilight 7:26 AM EDT 7:17 PM EDT
Nautical Twilight 6:54 AM EDT 7:48 PM EDT
Astronomical Twilight 6:23 AM EDT 8:19 PM EDT
Moon 12:00 AM EDT 3:10 PM EDT
Length of Visible Light 11h 51m
Length of Day
10h 56m
Waning Gibbous, 48% of the Moon is Illuminated
Oct 21
Waning Gibbous
Oct 27
New
Nov 4
First Quarter
Nov 12
Full
Nov 19
Last Quarter

Hourly Weather History & Observations

Time (EDT) Temp. Dew Point Humidity Pressure Visibility Wind Dir Wind Speed Gust Speed Precip Events Conditions
12:15 AM 51.4 °F 50.7 °F 97% 29.96 in 10.0 mi Calm Calm - N/A   Clear
12:35 AM 52.0 °F 51.1 °F 97% 29.96 in 10.0 mi Calm Calm - N/A   Clear
12:55 AM 52.0 °F 51.1 °F 97% 29.96 in 7.0 mi Calm Calm - N/A   Clear
1:15 AM 51.6 °F 51.1 °F 98% 29.96 in 1.0 mi Calm Calm - N/A   Mist
1:35 AM 51.8 °F 51.8 °F 100% 29.95 in 7.0 mi Calm Calm - N/A   Clear
1:55 AM 50.2 °F 49.6 °F 98% 29.94 in 5.0 mi Calm Calm - N/A   Clear
2:15 AM 49.6 °F 49.3 °F 99% 29.94 in 2.5 mi Calm Calm - N/A   Clear
2:35 AM 50.4 °F 50.0 °F 99% 29.94 in 4.0 mi Calm Calm - N/A   Clear
2:55 AM 49.3 °F 48.9 °F 99% 29.94 in 1.5 mi Calm Calm - N/A   Mist
3:15 AM 52.0 °F 51.8 °F 99% 29.93 in 5.0 mi Calm Calm - N/A   Clear
3:35 AM 50.2 °F 50.0 °F 99% 29.92 in 2.5 mi Calm Calm - N/A   Scattered Clouds
3:55 AM 50.9 °F 50.7 °F 99% 29.91 in 1.8 mi Calm Calm - N/A   Clear
4:15 AM 50.5 °F 50.4 °F 99% 29.90 in 1.0 mi Calm Calm - N/A   Scattered Clouds
4:35 AM 50.4 °F 50.4 °F 100% 29.92 in 2.5 mi Calm Calm - N/A   Mist
4:55 AM 50.0 °F 49.8 °F 99% 29.91 in 2.5 mi Calm Calm - N/A   Mist
5:15 AM 49.8 °F 49.6 °F 99% 29.91 in 1.0 mi Calm Calm - N/A   Mist
5:35 AM 53.1 °F 51.8 °F 95% 29.92 in 7.0 mi SSE 6.9 mph - N/A   Overcast
5:55 AM 56.3 °F 56.3 °F 100% 29.91 in 2.5 mi SE 8.1 mph - N/A   Overcast
6:15 AM 56.8 °F 56.7 °F 99% 29.90 in 7.0 mi ESE 3.5 mph - N/A   Overcast
6:35 AM 57.2 °F 56.8 °F 99% 29.91 in 10.0 mi SE 4.6 mph - N/A   Overcast
6:55 AM 57.9 °F 57.2 °F 97% 29.90 in 5.0 mi SE 5.8 mph - N/A   Overcast
7:15 AM 57.9 °F 56.7 °F 96% 29.90 in 5.0 mi SSE 8.1 mph - N/A   Mostly Cloudy
7:35 AM 58.1 °F 56.5 °F 94% 29.90 in 7.0 mi South 5.8 mph - N/A   Mostly Cloudy
7:55 AM 57.9 °F 56.1 °F 94% 29.89 in 10.0 mi SE 6.9 mph - N/A   Mostly Cloudy
8:15 AM 58.1 °F 56.3 °F 94% 29.88 in 10.0 mi SE 8.1 mph - N/A   Scattered Clouds
8:35 AM 58.8 °F 56.5 °F 92% 29.89 in 10.0 mi SE 6.9 mph - N/A   Mostly Cloudy
8:55 AM 59.4 °F 56.8 °F 91% 29.89 in 10.0 mi SE 9.2 mph - N/A   Scattered Clouds
9:15 AM 60.3 °F 56.8 °F 88% 29.87 in 10.0 mi SE 12.7 mph 19.6 mph N/A   Clear
9:35 AM 60.8 °F 57.0 °F 87% 29.85 in 10.0 mi SE 9.2 mph - N/A   Clear
9:55 AM 61.3 °F 57.0 °F 86% 29.85 in 10.0 mi SSE 10.4 mph - N/A   Clear
10:15 AM 61.7 °F 57.0 °F 85% 29.86 in 10.0 mi SSE 11.5 mph - N/A   Clear
10:35 AM 61.5 °F 56.8 °F 85% 29.83 in 10.0 mi SE 11.5 mph - N/A   Clear
10:55 AM 62.8 °F 57.2 °F 82% - 10.0 mi North - - N/A   Mostly Cloudy
11:15 AM - - N/A% - - North - - N/A   Unknown
11:35 AM - - N/A% - - North - - N/A   Unknown
11:55 AM - - N/A% - - North - - N/A   Unknown
12:15 PM - - N/A% - - North - - N/A   Unknown
12:35 PM - - N/A% - - North - - N/A   Unknown
12:55 PM - - N/A% - - North - - N/A   Unknown
1:15 PM - - N/A% - - North - - N/A   Unknown
1:35 PM 63.7 °F 60.3 °F 89% 29.79 in 10.0 mi Calm Calm - N/A Rain Light Rain
1:55 PM 65.3 °F 62.2 °F 90% 29.77 in 10.0 mi SE 4.6 mph - N/A   Mostly Cloudy
2:15 PM 66.7 °F 61.7 °F 84% 29.74 in 10.0 mi SSE 5.8 mph - N/A   Overcast
2:35 PM 67.6 °F 60.3 °F 77% 29.73 in 10.0 mi South 11.5 mph - N/A   Mostly Cloudy
2:55 PM 68.9 °F 60.4 °F 74% 29.73 in 10.0 mi South 13.8 mph - N/A   Scattered Clouds
3:15 PM 69.8 °F 60.1 °F 71% 29.73 in 10.0 mi South 10.4 mph - N/A   Scattered Clouds
3:35 PM 72.1 °F 60.8 °F 67% 29.73 in 10.0 mi South 12.7 mph 18.4 mph N/A   Scattered Clouds
3:55 PM 72.5 °F 60.3 °F 65% 29.72 in 10.0 mi South 11.5 mph 19.6 mph N/A   Overcast
4:15 PM 73.6 °F 60.1 °F 63% 29.72 in 10.0 mi South 19.6 mph 26.5 mph N/A   Overcast
4:35 PM 73.8 °F 59.0 °F 60% 29.73 in 10.0 mi SSW 19.6 mph 24.2 mph N/A   Overcast
4:55 PM 73.6 °F 58.6 °F 59% 29.73 in 10.0 mi SSW 21.9 mph 29.9 mph N/A   Overcast
5:15 PM 70.0 °F 59.5 °F 69% 29.73 in 10.0 mi SW 16.1 mph 29.9 mph N/A Rain Light Rain
5:35 PM 68.7 °F 60.4 °F 75% 29.73 in 10.0 mi WSW 8.1 mph - N/A   Overcast
5:55 PM 67.3 °F 60.4 °F 79% 29.74 in 10.0 mi SW 9.2 mph - N/A Rain Rain
6:15 PM 66.6 °F 60.6 °F 81% 29.74 in 10.0 mi SSW 12.7 mph - N/A Rain Light Rain
6:35 PM 66.9 °F 59.5 °F 77% 29.72 in 10.0 mi South 8.1 mph - N/A Rain Light Rain
6:55 PM 66.6 °F 59.0 °F 77% 29.72 in 10.0 mi South 10.4 mph - N/A   Overcast
7:15 PM 65.7 °F 59.4 °F 80% 29.73 in 10.0 mi South 10.4 mph - N/A Rain Light Rain
7:35 PM 64.8 °F 59.9 °F 84% 29.75 in 10.0 mi South 11.5 mph 21.9 mph N/A Rain Light Rain
7:55 PM 63.9 °F 60.3 °F 88% 29.76 in 10.0 mi South 10.4 mph - N/A Rain Light Rain
8:15 PM 63.1 °F 60.1 °F 90% 29.76 in 10.0 mi South 12.7 mph - N/A Rain Light Rain
8:35 PM 63.0 °F 59.4 °F 88% 29.76 in 10.0 mi South 15.0 mph 19.6 mph N/A   Mostly Cloudy
8:55 PM 63.0 °F 59.0 °F 87% 29.76 in 10.0 mi South 13.8 mph 19.6 mph N/A   Overcast
9:15 PM 62.8 °F 59.0 °F 87% 29.76 in 10.0 mi South 13.8 mph 23.0 mph N/A   Overcast
9:35 PM 62.6 °F 58.8 °F 87% 29.76 in 10.0 mi South 10.4 mph - N/A   Scattered Clouds
9:55 PM 62.8 °F 58.8 °F 87% 29.76 in 10.0 mi SSW 16.1 mph 24.2 mph N/A   Mostly Cloudy
10:15 PM 62.6 °F 58.6 °F 87% 29.76 in 10.0 mi South 12.7 mph 21.9 mph N/A   Mostly Cloudy
10:35 PM 62.6 °F 58.5 °F 86% 29.77 in 10.0 mi South 15.0 mph - N/A   Mostly Cloudy
10:55 PM 62.6 °F 58.3 °F 86% 29.77 in 10.0 mi South 11.5 mph 18.4 mph N/A   Mostly Cloudy
11:15 PM 62.6 °F 57.7 °F 84% 29.77 in 10.0 mi SSW 15.0 mph - N/A   Scattered Clouds
11:35 PM 62.4 °F 57.7 °F 85% 29.77 in 10.0 mi South 12.7 mph - N/A   Mostly Cloudy
11:55 PM 62.1 °F 57.6 °F 85% 29.77 in 10.0 mi SSW 13.8 mph - N/A   Mostly Cloudy